Location: Berg
(47.2344°N, 9.5296°E)
Time: 11:15:12
(UTC+00:00)

Envisat - Visible Passes

Search period start: 17 September 2021 00:00
Search period end: 27 September 2021 00:00
Orbit: 764 x 766 km, 98.2° (Epoch: 17 September)

Date Brightness Start Highest point End Pass type
(mag) Time Alt. Az. Time Alt. Az. Time Alt. Az.
17 Sep 4.8 03:56:32 10° NNE 04:01:10 34° E 04:05:46 10° SSE visible
18 Sep 5.9 03:20:44 10° NE 03:23:57 17° E 03:27:10 10° SE visible
19 Sep 3.8 04:21:37 10° NNE 04:26:38 57° E 04:31:37 10° S visible
20 Sep 5.2 03:45:14 10° NE 03:49:34 28° E 03:53:53 10° SSE visible
21 Sep 6.0 03:09:54 10° ENE 03:12:18 13° E 03:14:41 10° ESE visible
22 Sep 4.2 04:10:11 10° NNE 04:15:05 45° E 04:19:57 10° S visible
23 Sep 5.5 03:34:00 10° NE 03:37:58 22° E 03:41:53 10° SE visible
24 Sep 6.3 02:59:57 10° ENE 03:00:37 10° E 03:01:17 10° E visible
24 Sep 3.3 04:35:23 10° NNE 04:40:30 77° ESE 04:45:35 10° S visible
25 Sep 4.7 03:58:48 10° NNE 04:03:30 36° E 04:08:10 10° SSE visible
26 Sep 5.8 03:22:53 10° NE 03:26:19 18° E 03:29:44 10° SE visible
